Flinterborg — PHPH — position and weather

sailwx.info

Track history (hours):
 
Tides and Currents Weather Stations Pressure Air Temp Water Temp Dewpoint Dewpoint Depression Visibility Wind Speed Wind Dir Waves Ship Positions

Flinterborg

Last reported at 2014-Oct-31 18:29 UTC. Time now 2014-Oct-31 18:40 UTC.
Position N 55°07' W 007°12'.

Length 111 m; draft 6.5 m.

Type: Ship. MMSI: 245433000.

Date/timePositionNaut miles runAvg speedWind from/ knotsBaromVisibWave heightAir tempDewpointWater temp
2014-Oct-31 18:29N 55°07' W 007°12'1 0.1
2014-Oct-31 00:21N 55°06' W 007°13'8 9.2
2014-Oct-30 23:31N 55°11' W 007°03'9 9.4
2014-Oct-30 22:32N 55°18' W 006°52'1111.0
2014-Oct-30 21:33N 55°28' W 006°48'1110.7
2014-Oct-30 20:33N 55°39' W 006°44'10 9.6
2014-Oct-30 19:33N 55°47' W 006°37'13410.0
2014-Oct-30 06:13N 58°01' W 006°17'811.7
2014-Oct-30 05:33N 58°06' W 006°07'1211.7
2014-Oct-30 04:33N 58°14' W 005°51'1111.4
2014-Oct-30 03:33N 58°23' W 005°36'5010.0
2014-Oct-29 22:33N 58°42' W 004°07'1110.8
2014-Oct-29 21:33N 58°42' W 003°47'1111.3
2014-Oct-29 20:33N 58°43' W 003°25'1413.9
2014-Oct-29 19:33N 58°43' W 002°58'419 9.5
2014-Oct-27 23:29N 57°48' E 010°12'7 8.0
2014-Oct-27 22:33N 57°48' E 010°25'8 8.4
2014-Oct-27 21:33N 57°48' E 010°41'9 9.5
2014-Oct-27 20:33N 57°45' E 010°58'1010.4
2014-Oct-27 19:33N 57°41' E 011°16'1110.9
2014-Oct-27 18:33N 57°37' E 011°35'8 7.8
2014-Oct-27 17:33N 57°40' E 011°48'0 0.0
2014-Oct-27 16:34N 57°40' E 011°48'0 0.0
2014-Oct-27 15:33N 57°40' E 011°48'0 0.0
2014-Oct-27 14:33N 57°40' E 011°48'0 0.1
2014-Oct-27 13:33N 57°40' E 011°48'1 1.1
2014-Oct-27 12:33N 57°39' E 011°46'10 9.6
2014-Oct-27 11:33N 57°31' E 011°38'9 9.4
2014-Oct-27 10:33N 57°22' E 011°40'1010.3
2014-Oct-27 09:33N 57°11' E 011°40'1111.2
2014-Oct-27 08:32N 57°00' E 011°46'1110.7
2014-Oct-27 07:33N 56°51' E 011°55'1111.1
2014-Oct-27 06:33N 56°41' E 012°04'1111.2
2014-Oct-27 05:33N 56°31' E 012°13'1110.9
2014-Oct-27 04:34N 56°21' E 012°21'1111.0
2014-Oct-27 03:33N 56°11' E 012°29'1110.7
2014-Oct-27 02:33N 56°02' E 012°40'1010.5
2014-Oct-27 01:33N 55°52' E 012°44'1111.1
2014-Oct-27 00:34N 55°41' E 012°41'8 7.7
2014-Oct-26 23:34N 55°33' E 012°42'8 8.4
2014-Oct-26 22:33N 55°25' E 012°42'9 8.7
2014-Oct-26 21:33N 55°17' E 012°48'1110.7
2014-Oct-26 20:33N 55°16' E 013°06'1111.0
2014-Oct-26 19:33N 55°15' E 013°26'1111.0
2014-Oct-26 18:33N 55°15' E 013°45'1111.1
2014-Oct-26 17:33N 55°14' E 014°04'1010.2
2014-Oct-26 16:33N 55°17' E 014°21'1111.0
2014-Oct-26 15:33N 55°25' E 014°35'1111.0
2014-Oct-26 14:33N 55°30' E 014°52'1111.0
2014-Oct-26 13:33N 55°35' E 015°10'1111.0
2014-Oct-26 12:31N 55°38' E 015°29'  
2014-Oct-24 01:12N 55°47' E 019°52'912.3
2014-Oct-24 00:31N 55°39' E 019°46'1312.2
2014-Oct-23 23:25N 55°27' E 019°36'1612.3
2014-Oct-23 22:07N 55°13' E 019°24'712.5
2014-Oct-23 21:33N 55°07' E 019°18'1312.7
2014-Oct-23 20:33N 54°55' E 019°09'1312.7
2014-Oct-23 19:33N 54°43' E 019°00'1312.8
2014-Oct-23 18:33N 54°32' E 018°49'10 9.6
2014-Oct-23 17:33N 54°24' E 018°40'1 1.2
2014-Oct-23 16:33N 54°23' E 018°40'0 0.0
2014-Oct-23 15:33N 54°23' E 018°40'0 0.0
2014-Oct-23 14:33N 54°23' E 018°40'0 0.0
2014-Oct-23 13:32N 54°23' E 018°40'0 0.0
2014-Oct-23 12:32N 54°23' E 018°40'0 0.0
2014-Oct-23 11:31N 54°23' E 018°40'0 0.0
2014-Oct-23 10:31N 54°23' E 018°40'0 0.0
2014-Oct-23 09:33N 54°23' E 018°40'0 0.0
2014-Oct-23 08:30N 54°23' E 018°40'0 0.0
2014-Oct-23 07:33N 54°23' E 018°40'0 0.0
2014-Oct-23 06:32N 54°23' E 018°40'0 0.0
2014-Oct-23 05:32N 54°23' E 018°40'0 0.0
2014-Oct-23 04:31N 54°23' E 018°40'0 0.0
2014-Oct-23 03:31N 54°23' E 018°40'0 0.0
2014-Oct-23 02:33N 54°23' E 018°40'0 0.0
2014-Oct-23 01:30N 54°23' E 018°40'0 0.0
2014-Oct-23 00:33N 54°23' E 018°40'0 0.0
2014-Oct-22 23:32N 54°23' E 018°40'0 0.0
2014-Oct-22 22:32N 54°23' E 018°40'0 0.0
2014-Oct-22 21:31N 54°23' E 018°40'0 0.0
2014-Oct-22 20:31N 54°23' E 018°40'0 0.0
2014-Oct-22 19:33N 54°23' E 018°40'0 0.0
2014-Oct-22 18:30N 54°23' E 018°40'0 0.0
2014-Oct-22 17:32N 54°23' E 018°40'0 0.0
2014-Oct-22 16:32N 54°23' E 018°40'0 0.0
2014-Oct-22 15:32N 54°23' E 018°40'0 0.0
2014-Oct-22 14:31N 54°23' E 018°40'0 0.0
2014-Oct-22 13:31N 54°23' E 018°40'0 0.0
2014-Oct-22 12:33N 54°23' E 018°40'0 0.0
2014-Oct-22 11:33N 54°23' E 018°40'0 0.0
2014-Oct-22 10:32N 54°23' E 018°40'3 3.4
2014-Oct-22 09:34N 54°26' E 018°39'1110.7
2014-Oct-22 08:34N 54°35' E 018°51'1010.1
2014-Oct-22 07:34N 54°44' E 018°58'1110.7
2014-Oct-22 06:34N 54°55' E 018°59'1010.3
2014-Oct-22 05:34N 55°05' E 019°01'  
Track history (hours):
 
Tides and Currents Weather Stations Pressure Air Temp Water Temp Dewpoint Dewpoint Depression Visibility Wind Speed Wind Dir Waves Ship Positions

Flinterborg

Last reported at 2014-Oct-31 18:29 UTC. Time now 2014-Oct-31 18:40 UTC.
Position N 55°07' W 007°12'.

Length 111 m; draft 6.5 m.

Type: Ship. MMSI: 245433000.

Date/timePositionNaut miles runAvg speedWind from/ knotsBaromVisibWave heightAir tempDewpointWater temp
2014-Oct-31 18:29N 55°07' W 007°12'1 0.1
2014-Oct-31 00:21N 55°06' W 007°13'8 9.2
2014-Oct-30 23:31N 55°11' W 007°03'9 9.4
2014-Oct-30 22:32N 55°18' W 006°52'1111.0
2014-Oct-30 21:33N 55°28' W 006°48'1110.7
2014-Oct-30 20:33N 55°39' W 006°44'10 9.6
2014-Oct-30 19:33N 55°47' W 006°37'13410.0
2014-Oct-30 06:13N 58°01' W 006°17'811.7
2014-Oct-30 05:33N 58°06' W 006°07'1211.7
2014-Oct-30 04:33N 58°14' W 005°51'1111.4
2014-Oct-30 03:33N 58°23' W 005°36'5010.0
2014-Oct-29 22:33N 58°42' W 004°07'1110.8
2014-Oct-29 21:33N 58°42' W 003°47'1111.3
2014-Oct-29 20:33N 58°43' W 003°25'1413.9
2014-Oct-29 19:33N 58°43' W 002°58'419 9.5
2014-Oct-27 23:29N 57°48' E 010°12'7 8.0
2014-Oct-27 22:33N 57°48' E 010°25'8 8.4
2014-Oct-27 21:33N 57°48' E 010°41'9 9.5
2014-Oct-27 20:33N 57°45' E 010°58'1010.4
2014-Oct-27 19:33N 57°41' E 011°16'1110.9
2014-Oct-27 18:33N 57°37' E 011°35'8 7.8
2014-Oct-27 17:33N 57°40' E 011°48'0 0.0
2014-Oct-27 16:34N 57°40' E 011°48'0 0.0
2014-Oct-27 15:33N 57°40' E 011°48'0 0.0
2014-Oct-27 14:33N 57°40' E 011°48'0 0.1
2014-Oct-27 13:33N 57°40' E 011°48'1 1.1
2014-Oct-27 12:33N 57°39' E 011°46'10 9.6
2014-Oct-27 11:33N 57°31' E 011°38'9 9.4
2014-Oct-27 10:33N 57°22' E 011°40'1010.3
2014-Oct-27 09:33N 57°11' E 011°40'1111.2
2014-Oct-27 08:32N 57°00' E 011°46'1110.7
2014-Oct-27 07:33N 56°51' E 011°55'1111.1
2014-Oct-27 06:33N 56°41' E 012°04'1111.2
2014-Oct-27 05:33N 56°31' E 012°13'1110.9
2014-Oct-27 04:34N 56°21' E 012°21'1111.0
2014-Oct-27 03:33N 56°11' E 012°29'1110.7
2014-Oct-27 02:33N 56°02' E 012°40'1010.5
2014-Oct-27 01:33N 55°52' E 012°44'1111.1
2014-Oct-27 00:34N 55°41' E 012°41'8 7.7
2014-Oct-26 23:34N 55°33' E 012°42'8 8.4
2014-Oct-26 22:33N 55°25' E 012°42'9 8.7
2014-Oct-26 21:33N 55°17' E 012°48'1110.7
2014-Oct-26 20:33N 55°16' E 013°06'1111.0
2014-Oct-26 19:33N 55°15' E 013°26'1111.0
2014-Oct-26 18:33N 55°15' E 013°45'1111.1
2014-Oct-26 17:33N 55°14' E 014°04'1010.2
2014-Oct-26 16:33N 55°17' E 014°21'1111.0
2014-Oct-26 15:33N 55°25' E 014°35'1111.0
2014-Oct-26 14:33N 55°30' E 014°52'1111.0
2014-Oct-26 13:33N 55°35' E 015°10'1111.0
2014-Oct-26 12:31N 55°38' E 015°29'  
2014-Oct-24 01:12N 55°47' E 019°52'912.3
2014-Oct-24 00:31N 55°39' E 019°46'1312.2
2014-Oct-23 23:25N 55°27' E 019°36'1612.3
2014-Oct-23 22:07N 55°13' E 019°24'712.5
2014-Oct-23 21:33N 55°07' E 019°18'1312.7
2014-Oct-23 20:33N 54°55' E 019°09'1312.7
2014-Oct-23 19:33N 54°43' E 019°00'1312.8
2014-Oct-23 18:33N 54°32' E 018°49'10 9.6
2014-Oct-23 17:33N 54°24' E 018°40'1 1.2
2014-Oct-23 16:33N 54°23' E 018°40'0 0.0
2014-Oct-23 15:33N 54°23' E 018°40'0 0.0
2014-Oct-23 14:33N 54°23' E 018°40'0 0.0
2014-Oct-23 13:32N 54°23' E 018°40'0 0.0
2014-Oct-23 12:32N 54°23' E 018°40'0 0.0
2014-Oct-23 11:31N 54°23' E 018°40'0 0.0
2014-Oct-23 10:31N 54°23' E 018°40'0 0.0
2014-Oct-23 09:33N 54°23' E 018°40'0 0.0
2014-Oct-23 08:30N 54°23' E 018°40'0 0.0
2014-Oct-23 07:33N 54°23' E 018°40'0 0.0
2014-Oct-23 06:32N 54°23' E 018°40'0 0.0
2014-Oct-23 05:32N 54°23' E 018°40'0 0.0
2014-Oct-23 04:31N 54°23' E 018°40'0 0.0
2014-Oct-23 03:31N 54°23' E 018°40'0 0.0
2014-Oct-23 02:33N 54°23' E 018°40'0 0.0
2014-Oct-23 01:30N 54°23' E 018°40'0 0.0
2014-Oct-23 00:33N 54°23' E 018°40'0 0.0
2014-Oct-22 23:32N 54°23' E 018°40'0 0.0
2014-Oct-22 22:32N 54°23' E 018°40'0 0.0
2014-Oct-22 21:31N 54°23' E 018°40'0 0.0
2014-Oct-22 20:31N 54°23' E 018°40'0 0.0
2014-Oct-22 19:33N 54°23' E 018°40'0 0.0
2014-Oct-22 18:30N 54°23' E 018°40'0 0.0
2014-Oct-22 17:32N 54°23' E 018°40'0 0.0
2014-Oct-22 16:32N 54°23' E 018°40'0 0.0
2014-Oct-22 15:32N 54°23' E 018°40'0 0.0
2014-Oct-22 14:31N 54°23' E 018°40'0 0.0
2014-Oct-22 13:31N 54°23' E 018°40'0 0.0
2014-Oct-22 12:33N 54°23' E 018°40'0 0.0
2014-Oct-22 11:33N 54°23' E 018°40'0 0.0
2014-Oct-22 10:32N 54°23' E 018°40'3 3.4
2014-Oct-22 09:34N 54°26' E 018°39'1110.7
2014-Oct-22 08:34N 54°35' E 018°51'1010.1
2014-Oct-22 07:34N 54°44' E 018°58'1110.7
2014-Oct-22 06:34N 54°55' E 018°59'1010.3
2014-Oct-22 05:34N 55°05' E 019°01'  

Dump ship's entire track history